Flag for Australia Weather past 2 weeks in The Settlement, Christmas Island, Australia

Now
73 °F

Partly cloudy.


Feels Like: 73 °F
Forecast: 73 / 78 °F
Wind: 7 mph from Southeast

Location: Christmas Island Aerodrome

Current Time: Aug 4, 2015 at 12:43:22 AM

Latest Report: Aug 4, 2015 at 12:00 AM


Visibility: N/A

Pressure: 30.01 "Hg

Humidity: 83%

Dew point: 68 °F

Location of The SettlementLocation

Historic Weather in The Settlement — Graph

°F

The Settlement temperature yesterday

Maximum temperature yesterday: 81 °F (at 1:00 PM)
Minimum temperature yesterday: 73 °F (at 12:00 AM)
Average temperature yesterday: 76 °F

Past Weeks' High & Low Weather Summary

 TemperatureHumidityPressure
High81 °F (Jul 30, 2:00 PM)94% (Jul 20, 6:00 AM)30.09 "Hg (Jul 20, 6:00 AM)
Low73 °F (Jul 20, 5:00 AM)58% (Aug 3, 11:00 AM)29.92 "Hg (Jul 20, 4:00 AM)
Average76 °F80%30.00 "Hg
* Reported Jul 19 11:00 PM — Aug 3 11:00 PM, The Settlement, Weather by CustomWeather, © 2015

Note: Actual official high and low records may vary slightly from our data, if they occured in-between our weather recording intervals... More about our weather records

Advertising

The Settlement weather history for previous 24 hours

 ConditionsComfort  
Time TempWeatherWind HumidityBarometerVisibility
11:00 PM
Mon, Aug 3
73 °FSprinkles. Partly cloudy.12 mph89%30.01 "Hg6 mi
10:00 PM73 °FOvercast.10 mph89%30.01 "HgN/A
9:00 PM75 °FMostly cloudy.15 mph78%30.01 "HgN/A
8:00 PM75 °FMostly cloudy.12 mph78%30.01 "HgN/A
7:00 PM73 °FSprinkles. Mostly cloudy.13 mph89%29.98 "HgN/A
6:00 PM75 °FPassing clouds.10 mph74%29.95 "HgN/A
5:00 PM75 °FPartly sunny.10 mph74%29.95 "HgN/A
4:00 PM77 °FBroken clouds.12 mph69%29.92 "HgN/A
3:00 PM79 °FScattered clouds.13 mph65%29.92 "HgN/A
2:00 PM79 °FScattered clouds.14 mph61%29.95 "HgN/A
1:00 PM81 °FScattered clouds.13 mph58%29.98 "HgN/A
12:00 PM79 °FScattered clouds.14 mph61%30.01 "HgN/A
11:00 AM79 °FScattered clouds.15 mph58%30.01 "HgN/A
10:00 AM77 °FScattered clouds.15 mph65%30.04 "HgN/A
9:00 AM77 °FScattered clouds.13 mph61%30.04 "HgN/A
8:00 AM75 °FPartly sunny.13 mph65%30.04 "HgN/A
7:00 AM73 °FPartly sunny.13 mph69%30.01 "HgN/A
6:00 AM73 °FPassing clouds.9 mph69%30.01 "HgN/A
5:00 AM73 °FPassing clouds.13 mph69%30.01 "HgN/A
4:00 AM73 °FPassing clouds.14 mph78%30.01 "HgN/A
3:00 AM73 °FPassing clouds.13 mph74%30.01 "HgN/A
2:00 AM73 °FPassing clouds.14 mph74%30.04 "HgN/A
1:00 AM75 °FPartly cloudy.14 mph69%30.04 "HgN/A
12:00 AM73 °FPassing clouds.13 mph74%30.04 "HgN/A
Weather by CustomWeather, © 2015

See weather overviewHow to use our weather pages